Temp
6 5 5 5 5 5 5 5 5 6 8 8 6 5 4 3 3 2 2 2 2 2 2 2 3 3 3 4 4 4 5 5 6 7 7 7 7 8
5 5 5 5 5 4 4 4 4 4 5 6 6 5 4 3 3 2 2 2 2 2 2 2 2 3 3 3 3 4 4 4 5 6 6 7 8 8
5 5 5 5 4 4 4 3 4 4 4 5 5 4 3 3 3 2 2 2 2 2 2 2 2 2 2 3 3 3 3 4 4 5 5 6 7 7
5 5 5 5 4 4 4 4 4 4 3 4 4 4 3 3 2 2 2 2 2 2 1 1 1 2 2 2 2 2 2 3 3 4 4 4 5 5
5 5 5 5 4 4 4 4 3 3 3 3 3 3 2 2 2 2 2 2 2 1 1 1 1 1 1 1 2 2 2 2 2 2 2 3 3 4
4 4 4 4 4 4 4 4 3 3 3 3 3 3 2 2 2 2 3 3 3 3 2 2 1 1 1 1 1 1 1 1 1 1 2 2 2 3
4 4 4 3 3 2 2 3 3 3 2 2 3 2 2 3 3 3 2 2 2 2 2 2 2 2 2 1 1 1 1 1 1 1 1 2 2 2
4 4 3 2 2 1 1 1 1 2 2 2 2 3 3 3 2 2 2 2 2 2 2 1 1 2 2 2 1 1 0 0 0 1 1 1 2 2
2 2 2 2 1 1 1 1 1 1 1 1 2 2 3 3 2 2 2 1 1 1 1 -0 1 1 2 1 0 1 1 0 0 1 1 1 1 1
1 1 1 1 1 0 0 0 1 1 1 1 1 1 1 2 1 1 1 0 -0 -0 -1 1 1 1 1 1 1 1 0 0 0 0 1 1 1 1
1 1 0 0 -0 -0 -0 0 1 1 1 0 -1 -1 -0 -0 -0 -0 -0 0 1 1 1 1 0 0 0 0 1 1 0 -0 -0 0 0 1 1 1
1 1 0 0 -0 -0 -0 0 0 1 1 1 1 1 -0 -0 -0 -1 -0 -1 -0 -0 -0 -1 -1 -0 -0 0 0 0 0 0 -0 -0 -0 -0 -0 0
-0 0 0 -0 -1 -1 -1 -1 -1 -0 -0 -0 0 -0 -1 -1 -1 -1 -1 -2 -2 -2 -1 -2 -2 -2 -1 -1 -0 -1 -1 -1 -1 -1 -0 -1 -1 0
-1 -0 -0 -1 -1 -1 -1 -1 -1 -1 -1 -1 -1 -1 -2 -2 -2 -2 -2 -3 -3 -3 -3 -3 -3 -3 -2 -2 -1 -1 -1 -1 -1 -1 -1 -1 -2 -1
-1 -1 -1 -2 -2 -2 -1 -2 -2 -2 -2 -2 -2 -2 -2 -3 -3 -3 -4 -4 -4 -4 -4 -3 -3 -3 -3 -2 -2 -2 -1 -1 -1 -2 -2 -3 -2 -2
-1 -2 -2 -2 -2 -2 -2 -2 -2 -2 -2 -2 -2 -3 -3 -3 -3 -4 -4 -4 -4 -3 -3 -3 -3 -3 -3 -3 -3 -2 -2 -2 -1 -2 -2 -2 -2 -2
-3 -3 -2 -2 -3 -3 -3 -3 -4 -4 -4 -4 -4 -3 -4 -4 -4 -4 -4 -4 -4 -3 -3 -3 -3 -3 -3 -3 -3 -2 -2 -2 -2 -2 -3 -3 -2 -2
-3 -3 -3 -4 -4 -4 -4 -4 -4 -4 -4 -4 -5 -5 -5 -5 -5 -4 -4 -4 -3 -3 -3 -3 -3 -3 -3 -3 -3 -3 -3 -3 -3 -3 -3 -3 -3 -2
-4 -4 -5 -5 -5 -5 -5 -5 -5 -5 -5 -5 -5 -5 -5 -5 -5 -4 -4 -4 -4 -3 -3 -3 -3 -3 -1 -1 -3 -4 -3 -3 -3 -3 -3 -3 -3 -3
-5 -5 -5 -5 -5 -5 -5 -5 -5 -5 -5 -5 -5 -5 -5 -5 -5 -4 -4 -4 -3 -3 -3 -3 -3 -3 -2 -2 -2 -4 -4 -4 -4 -4 -4 -4 -4 -4
-5 -6 -6 -6 -6 -6 -6 -6 -6 -6 -6 -6 -6 -6 -5 -5 -5 -5 -4 -4 -3 -3 -2 -2 -3 -4 -4 -4 -3 -3 -4 -5 -5 -5 -5 -5 -4 -4
-6 -6 -6 -6 -6 -6 -6 -6 -6 -6 -6 -6 -6 -6 -5 -5 -5 -5 -4 -3 -3 -3 -3 -4 -4 -4 -4 -4 -3 -4 -4 -5 -6 -6 -6 -6 -5 -4
-6 -7 -7 -7 -7 -6 -6 -6 -6 -6 -6 -6 -6 -6 -6 -5 -5 -4 -4 -3 -3 -4 -4 -4 -4 -5 -5 -5 -5 -5 -5 -5 -5 -5 -5 -5 -5 -5
Height
824 823 822 820 818 816 815 814 812 803 797 795 796 794 793 790 787 784 780 778 776 774 772 771 769 766 764 763 763 763 762 761 761 761 762 763 764 766
820 820 818 817 815 814 812 809 808 804 796 793 792 791 790 785 783 781 778 774 772 770 769 767 765 764 762 760 759 759 758 758 757 757 757 759 760 761
817 816 814 813 810 809 808 805 803 800 794 789 788 786 784 781 778 777 774 772 769 767 765 763 762 760 759 757 755 754 754 754 754 753 754 754 755 755
814 812 810 807 805 804 802 799 797 794 791 785 783 781 779 777 774 772 770 767 764 763 760 758 757 755 754 753 751 750 749 749 749 749 749 749 749 750
809 807 804 802 800 797 796 794 791 787 785 781 776 777 774 771 769 767 765 763 761 759 756 754 752 750 748 747 746 745 744 743 744 744 743 743 744 744
804 801 799 796 794 791 789 786 784 781 779 776 771 770 769 766 764 762 759 758 756 754 752 749 747 745 743 741 740 739 738 737 737 738 737 737 737 738
799 796 792 790 787 784 782 779 777 774 773 770 766 765 763 761 758 756 754 752 750 749 747 745 743 741 738 736 734 733 733 732 731 730 730 730 730 731
792 790 787 783 780 777 774 772 771 768 765 763 761 758 756 755 753 752 750 748 745 745 742 740 740 735 733 730 728 728 727 725 725 724 723 723 723 724
788 784 780 777 774 771 767 764 761 760 758 757 753 751 749 749 748 746 745 744 742 739 738 734 733 728 726 724 722 721 720 719 717 716 716 716 716 717
783 779 776 772 769 766 762 758 754 752 749 748 746 744 744 744 743 742 740 738 735 733 733 726 725 720 720 717 715 715 713 711 710 709 709 709 709 710
777 774 771 767 763 761 757 752 747 743 742 741 739 738 737 737 737 736 734 731 726 724 726 722 720 715 713 711 709 708 707 705 704 703 704 704 703 703
772 768 766 762 759 755 751 746 741 737 735 733 731 730 729 729 729 730 729 727 723 717 719 718 715 714 707 704 703 704 703 702 700 700 700 699 698 697
767 763 760 757 753 749 745 741 736 732 729 727 723 721 721 721 723 724 724 723 719 713 714 714 710 708 706 702 700 700 698 696 696 695 693 692 692 693
765 759 755 751 747 742 738 734 730 727 724 722 720 719 718 719 719 718 717 716 713 709 708 708 704 703 700 697 695 694 692 691 690 689 688 687 686 686
761 755 751 746 742 737 734 729 726 724 722 719 717 716 716 715 714 712 710 708 705 702 700 699 697 696 694 691 689 688 687 685 684 683 683 682 681 681
755 750 746 743 739 735 730 727 725 722 719 716 714 712 711 710 708 707 704 702 699 694 692 691 690 688 686 685 684 682 682 681 679 679 678 678 678 678
751 747 742 738 734 731 728 725 723 720 717 715 712 710 707 706 703 702 699 696 693 689 686 684 682 681 679 679 678 677 676 676 675 674 675 674 674 675
748 743 739 736 733 730 727 723 720 717 715 712 710 707 705 702 699 697 694 691 688 685 681 679 676 675 674 672 672 673 673 672 671 671 671 671 671 671
746 742 738 735 731 728 724 721 717 715 712 709 707 704 701 698 695 692 690 687 683 680 677 675 673 672 670 668 669 670 671 670 670 670 669 669 668 668
744 740 736 733 730 726 722 719 715 712 709 706 703 700 697 695 691 689 686 682 679 676 673 671 670 670 669 668 667 668 668 669 669 668 667 666 665 664
742 738 735 731 727 724 720 716 713 709 706 703 700 697 694 691 688 685 681 678 675 672 669 669 669 669 668 668 668 667 667 667 667 666 665 664 662 660
739 736 732 728 724 721 717 713 709 706 703 699 696 693 690 687 684 681 678 675 672 670 669 669 669 669 669 668 667 667 666 666 664 662 662 662 661 658
737 733 729 725 721 718 714 710 706 703 699 696 693 690 687 684 681 678 675 673 672 671 670 670 670 670 669 669 668 667 665 664 662 661 659 658 657 656
Wind_Speed
6 8 9 10 10 10 12 12 13 9 10 9 9 8 10 16 15 15 14 14 16 14 13 13 13 13 13 13 15 16 18 19 19 18 18 19 20 21
8 10 12 12 12 13 14 14 15 17 10 14 15 18 19 17 16 15 15 17 15 15 14 13 13 13 13 13 14 15 16 18 19 19 22 24 24 24
12 13 15 14 15 15 16 17 18 18 16 22 21 19 19 18 16 15 15 16 15 15 14 14 14 15 15 15 15 15 15 17 17 18 19 22 25 25
15 15 17 15 17 18 18 20 21 20 21 23 22 21 20 17 17 17 16 14 14 16 15 15 15 16 16 17 16 16 16 17 17 19 19 20 21 21
17 18 19 19 20 19 20 22 22 22 22 23 23 21 20 18 18 17 15 15 15 16 17 17 18 17 17 16 16 16 17 17 18 19 20 21 22 23
18 19 20 21 22 22 23 24 25 24 24 23 23 22 20 18 17 17 16 14 16 16 16 19 20 19 19 18 19 20 19 18 19 21 21 21 21 22
21 21 22 23 27 28 27 27 26 24 22 22 21 21 20 19 17 15 17 18 18 18 17 14 13 15 18 19 20 19 18 18 20 21 22 21 21 22
24 24 24 25 25 25 26 29 31 29 27 24 22 21 23 22 20 18 18 18 11 17 16 19 20 21 22 21 20 21 23 23 23 23 22 23 22 22
22 23 23 22 23 24 25 25 26 27 31 31 29 28 26 24 22 21 20 19 20 23 21 23 22 25 22 21 22 23 23 25 25 23 23 23 24 23
20 21 22 23 22 22 23 24 25 25 25 25 27 29 27 25 22 21 22 24 24 25 22 21 25 26 24 23 21 20 25 26 25 23 23 24 24 24
20 20 21 22 23 23 24 25 25 26 23 23 25 27 25 24 24 23 21 19 18 22 22 24 24 25 22 20 21 20 20 20 18 19 19 19 18 20
21 22 21 21 22 24 25 26 25 27 24 24 24 23 21 20 20 17 19 20 20 20 17 12 16 15 11 19 16 6 16 15 11 14 20 22 21 21
24 24 23 23 25 27 27 27 27 27 27 26 26 23 20 14 13 15 16 19 21 24 22 21 23 20 14 19 19 21 19 17 18 18 17 16 16 18
25 25 25 26 29 28 27 25 24 22 20 19 16 12 12 12 14 16 17 20 24 28 26 25 19 18 17 17 17 19 17 18 18 18 17 15 15 16
24 26 28 23 21 21 22 19 12 12 12 14 14 14 14 13 15 18 19 20 24 26 25 25 26 25 23 21 19 17 17 15 14 17 16 13 12 10
25 24 16 20 21 20 17 17 17 16 15 17 17 17 15 15 17 18 18 19 20 22 21 22 24 25 24 23 20 20 17 10 8 9 9 12 11 10
22 24 21 20 19 19 18 17 16 14 14 13 14 16 18 18 17 17 17 18 17 17 19 18 21 20 21 21 17 16 13 15 15 12 11 9 10 11
23 19 17 17 16 17 17 17 15 14 14 16 18 16 17 17 16 16 16 17 16 17 17 17 18 12 9 11 17 14 11 11 9 10 10 7 10 11
17 17 17 17 18 18 17 16 17 17 16 16 16 16 15 15 16 15 15 15 16 16 16 17 10 9 6 5 3 9 7 4 4 5 6 9 11 12
16 17 18 18 17 17 17 16 16 16 16 15 15 15 15 14 15 15 15 15 15 15 15 9 6 7 5 3 2 2 4 3 4 7 9 11 14 15
17 17 17 18 18 17 17 17 17 16 17 16 16 15 14 14 15 14 15 17 16 13 9 3 2 4 4 3 3 3 3 6 8 9 10 10 11 10
18 18 18 18 19 18 17 17 17 16 16 15 15 14 14 13 14 15 14 13 10 6 2 1 1 1 1 2 4 4 5 6 9 8 9 12 9 3
19 19 19 20 19 18 17 17 16 16 16 15 15 14 13 13 13 13 11 7 5 2 1 0 1 2 2 3 5 7 7 8 7 8 6 7 7 11
Wind_Direction
294 296 294 289 277 270 268 271 279 292 298 295 288 275 278 298 298 301 301 301 305 306 302 299 302 302 298 298 296 292 291 287 283 277 277 276 274 271
298 298 295 288 281 274 269 267 260 265 277 280 282 283 290 291 294 294 294 295 297 298 296 295 296 303 303 297 295 291 289 286 282 279 272 267 267 263
298 294 289 283 276 276 273 269 264 261 266 278 280 282 285 287 287 288 290 289 289 291 289 290 291 295 296 295 293 290 286 281 279 275 270 267 264 265
297 290 283 285 277 277 272 268 266 265 266 274 280 282 281 281 283 285 288 282 283 285 287 289 286 287 288 288 289 285 282 280 277 272 271 270 270 269
285 284 284 282 277 275 273 270 269 268 264 266 272 275 276 279 282 280 278 281 281 283 288 287 290 292 289 284 282 280 281 278 275 272 271 268 267 265
288 285 285 282 280 280 277 273 271 268 266 265 268 272 274 277 275 277 284 282 285 286 285 285 286 287 290 288 280 277 276 275 276 276 272 268 266 264
293 290 287 283 282 283 275 274 272 270 267 266 269 271 273 273 267 278 283 288 289 290 288 287 287 290 290 287 283 280 278 279 279 279 267 269 266 262
294 294 292 291 289 288 283 275 268 267 265 263 267 268 273 275 277 276 281 289 292 288 284 286 293 287 288 283 279 275 281 282 282 276 268 267 266 261
296 297 298 298 296 294 292 288 281 273 262 264 266 267 272 272 275 278 278 282 279 284 291 285 287 286 288 281 279 272 274 278 279 275 267 268 260 264
300 300 300 302 303 302 300 294 286 279 270 263 260 263 267 271 272 276 277 278 281 284 273 275 293 288 290 285 278 277 276 279 276 270 267 273 267 265
304 304 304 304 306 306 303 294 289 283 279 269 265 263 262 264 265 269 273 285 285 282 286 288 287 288 291 287 284 280 283 279 273 264 263 263 264 269
312 310 309 308 308 307 302 297 291 286 285 281 273 268 262 262 261 268 280 282 284 286 289 280 287 286 292 290 272 263 306 291 281 280 278 272 269 265
312 311 310 312 312 308 301 297 290 290 288 281 272 267 265 257 265 268 270 268 274 271 275 282 281 272 265 276 278 286 281 273 280 283 277 271 255 252
309 307 308 312 314 312 308 301 302 304 304 301 298 295 290 284 284 277 271 273 270 270 276 277 272 270 275 276 279 284 277 275 275 272 273 265 264 255
307 304 304 308 315 317 318 313 314 315 311 304 300 295 289 286 286 286 286 283 279 276 272 268 264 266 264 267 273 277 280 278 273 266 267 254 252 245
311 309 311 310 311 310 309 310 308 306 302 299 298 297 293 292 290 289 285 283 278 279 277 274 268 265 261 260 262 267 272 268 272 270 262 251 241 241
325 319 311 311 318 320 320 316 315 313 307 303 303 300 298 297 290 287 283 279 276 279 285 280 280 275 268 262 264 264 267 270 269 264 245 244 248 248
322 316 323 322 319 320 316 312 309 303 302 304 300 294 289 288 287 287 282 278 279 282 282 284 284 272 252 265 247 255 264 266 268 255 241 254 266 263
322 322 321 318 315 315 313 313 312 309 307 300 295 295 294 290 290 289 286 282 280 280 281 283 276 257 258 263 168 226 258 254 265 266 259 260 272 277
323 320 316 318 317 314 312 310 308 308 305 301 296 293 292 291 291 288 286 282 283 285 283 271 255 250 255 304 341 180 243 257 277 283 283 280 277 278
320 317 318 313 310 310 309 308 305 304 304 303 300 297 295 292 290 288 287 289 289 289 286 258 272 269 263 273 243 218 263 278 277 275 282 278 279 285
316 316 315 312 311 311 311 309 308 307 304 301 299 297 297 294 291 292 291 293 302 312 345 1 50 31 302 295 323 314 304 305 304 291 271 256 265 278
316 314 313 313 312 313 310 308 306 304 302 300 299 298 299 298 299 299 300 302 307 322 330 299 346 1 347 333 318 311 312 316 320 318 309 296 277 272